Regional Weather Roundup
Issued by NWS

Home | Current Version | Previous Version | Text Only | Print | Product List | Glossary On
Versions: 1 2 3 4 5 6 7 8 9 10 11 12 13 14 15 16 17 18 19 20 21 22 23 24 25 26 27 28 29 30 31 32 33 34 35 36 37 38 39 40 41 42 43 44 45 46 47 48 49 50
000
ASUS44 KFWD 051303
RWRTX
NORTH TEXAS HOURLY WEATHER ROUNDUP
NATIONAL WEATHER SERVICE FORT WORTH TX
800 AM CDT THU MAY 05 2016

NOTE: "FAIR" INDICATES FEW OR NO CLOUDS BELOW 12,000 FEET WITH NO
SIGNIFICANT WEATHER AND/OR OBSTRUCTIONS TO VISIBILITY.

TXZ118-119-051400-
DALLAS/FORT WORTH METROPLEX

CITY           SKY/WX    TMP DP  RH WIND       PRES   REMARKS
DFW AIRPORT    SUNNY     63  55  75 N7        30.07R
DALLAS LOVE    MOSUNNY   63  52  67 VRB6      30.08R
FTW MEACHAM    SUNNY     63  51  65 CALM      30.08R
DAL-EXECUTIVE  SUNNY     63  55  75 NW5       30.07R
FTW-ALLIANCE   SUNNY     59  51  75 CALM      30.08R
FTW-NAS-JRB    SUNNY     60  52  74 NW5       30.09R
FTW-SPINKS     SUNNY     55  54  94 CALM      30.10R
ARLINGTON      SUNNY     63  57  81 CALM      30.08R
GRAND PRAIRIE  SUNNY     61  54  77 CALM      30.09R
ADDISON        SUNNY     61  48  63 N5        30.09R
MESQUITE       SUNNY     59  52  77 N5        30.07S
LANCASTER      SUNNY     58  50  76 CALM      30.08R
$$

TXZ091>094-102>105-117-120-121-131>134-051400-
NORTH CENTRAL TEXAS

CITY           SKY/WX    TMP DP  RH WIND       PRES   REMARKS
SHRMAN/DENISON SUNNY     52  46  82 CALM      30.11R
BRIDGEPORT     SUNNY     57  54  89 CALM      30.11R
DECATUR        SUNNY     62  44  53 NE3       30.10R
DENTON         SUNNY     56  51  84 CALM      30.09R
MCKINNEY       SUNNY     57  52  83 CALM      30.09R
GREENVILLE     SUNNY     59  50  72 CALM      30.08R
TERRELL        SUNNY     58  53  84 N3        30.08R
WAXAHACHIE     SUNNY     62  53  72 CALM      30.09R
CLEBURNE       SUNNY     61  57  88 CALM      30.10R
GRANBURY       SUNNY     58  54  86 CALM      30.10R
$$

TXZ083>090-098>101-113>116-127>130-139>142-154-155-051400-
WESTERN NORTH TEXAS

CITY           SKY/WX    TMP DP  RH WIND       PRES   REMARKS
WICHITA FALLS  SUNNY     57  52  83 CALM      30.10R
WF-KICKAPOO    SUNNY     59  52  76 CALM      30.11R
VERNON         SUNNY     56  48  73 CALM      30.12R
ABILENE        SUNNY     59  50  72 CALM      30.11R
ABILENE-DYESS  SUNNY     55  52  89 CALM      30.10R
MINERAL WELLS  SUNNY     59  54  83 CALM      30.08R
STEPHENVILLE   SUNNY     58  52  78 CALM      30.12R
COMANCHE       SUNNY     56  56  99 CALM      30.11R
BROWNWOOD      SUNNY     54  52  94 CALM      30.11R
COLEMAN        SUNNY     56  49  77 CALM      30.11R
$$

TXZ143>147-156>162-174-175-051400-
CENTRAL TEXAS

CITY           SKY/WX    TMP DP  RH WIND       PRES   REMARKS
WACO           SUNNY     61  55  81 NW3       30.07R
WACO-TSTC      SUNNY     57  55  94 CALM      30.07R
WACO-MCGREGOR  SUNNY     60  54  80 CALM      30.08R
HILLSBORO      SUNNY     58  55  89 CALM      30.08R
CORSICANA      SUNNY     63  54  72 N6        30.08R
HEARNE         SUNNY     58  55  89 CALM      30.07R
CAMERON        SUNNY     61  55  81 N3        30.07R
TEMPLE         SUNNY     59  55  87 N5        30.08R
KILLEEN        SUNNY     63  53  70 N8        30.08R
KILLEEN-SKYLRK SUNNY     63  52  67 CALM      30.08R
FORT HOOD      SUNNY     62  52  71 N5        30.06R
HAMILTON       SUNNY     61  53  74 CALM      30.11R
LAMPASAS       SUNNY     58  52  81 N5        30.09R
$$

TXZ095>097-106>112-122>126-135>138-148>153-164>167-051400-
EAST TEXAS

CITY           SKY/WX    TMP DP  RH WIND       PRES   REMARKS
PARIS          SUNNY     55  45  67 NW3       30.07R
MOUNT PLEASANT SUNNY     58  51  76 CALM      30.07R
GILMER         SUNNY     58  50  75 CALM      30.06R
MINEOLA        SUNNY     61  54  77 CALM      30.07R
TYLER          SUNNY     60  51  72 CALM      30.06R
LONGVIEW       SUNNY     58  55  90 NW5       30.04R
MARSHALL       SUNNY     56  52  85 CALM      30.06R
ATHENS         SUNNY     57  54  88 CALM      30.05R
PALESTINE      SUNNY     59  56  88 CALM      30.06R
JACKSONVILLE   SUNNY     63  47  56 N3        30.07R
CENTER         FAIR      60  55  82 CALM      30.03R
NACOGDOCHES    SUNNY     57  54  88 N5        30.03S
LUFKIN         SUNNY     59  54  83 NW5       30.03R
$$

SUPPLEMENTAL OBSERVATIONS (CENTRAL)

CITY           SKY/WX    TMP DP  RH WIND       PRES   REMARKS
$$

SUPPLEMENTAL OBSERVATIONS (WEST)

CITY           SKY/WX    TMP DP  RH WIND       PRES   REMARKS
$$

SUPPLEMENTAL OBSERVATIONS (EAST)

CITY           SKY/WX    TMP DP  RH WIND       PRES   REMARKS
$$

SUPPLEMENTAL OBSERVATIONS ARE A COLLECTION OF AUTOMATED INSTRUMENTS
THAT ARE MAINTAINED BY A VARIETY OF FEDERAL AND STATE AGENCIES.
CERTAIN ELEMENTS...SUCH AS HUMIDITY VALUES AND SUSTAINED WIND
SPEEDS...MAY BE APPROXIMATED.




USA.gov is the U.S. government's official web portal to all federal, state and local government web resources and services.